Regional Weather Roundup
Issued by NWS Wakefield, VA

Home | Current Version | Previous Version | Graphics & Text | Print | Product List | Glossary Off
Versions: 1 2 3 4 5 6 7 8 9 10 11 12 13 14 15 16 17 18 19 20 21 22 23 24 25 26 27

000
ASUS41 KAKQ 241215
RWRAKQ

REGIONAL WEATHER ROUNDUP
NATIONAL WEATHER SERVICE WAKEFIELD VA
700 AM EST FRI NOV 24 2017

Note: "fair" indicates few or no clouds below 12,000 feet with no
significant weather and/or obstructions to visibility. * = Denotes
station may not report precipitation (e.g., rain,snow,etc.),
thunder or fog.

VAZ042-051-052>054-056-241300-
NORTHERN VIRGINIA

CITY           SKY/WX    TMP DP  RH WIND       PRES   REMARKS
WASH NATIONAL  PTCLDY    33  29  85 SW5       30.09S
DULLES         CLOUDY    25  24  96 CALM      30.07S
FORT BELVOIR   CLEAR     25  23  92 CALM      30.08F
QUANTICO       CLEAR     30  28  92 W5        30.10F
FREDERICKSBRG* CLOUDY    26  26 100 CALM      30.09S
STAFFORD*      CLOUDY    22  22 100 CALM      30.12F
WARRENTON      NOT AVBL
CULPEPER*      CLOUDY    22  20  91 CALM      30.08F
MANASSAS*      CLOUDY    21  19  92 CALM      30.08S
LEESBURG*      CLOUDY    28  28 100 CALM      30.08R
WINCHESTER     CLOUDY    27  23  86 CALM      30.05R
FRONT ROYAL*   SUNNY     27  23  86 CALM      30.04R
LURAY*         SUNNY     25  25 100 CALM      30.04S
$$

VAZ048-049-060>072-079>083-241300-
CENTRAL AND SOUTH CENTRAL VIRGINIA

CITY           SKY/WX    TMP DP  RH WIND       PRES   REMARKS
RICHMOND       PTCLDY    27  24  89 CALM      30.10R
CHESTERFIELD*  NOT AVBL
PETERSBURG*    CLOUDY   N/A N/A N/A CALM      30.10S
HANOVER        CLOUDY    26  24  92 CALM      30.10S
TAPPAHANNOCK*    N/A    N/A N/A N/A MISG        N/A
QUINTON*       FAIR      25  24  99 CALM      30.10R
CHARLOTTSVILLE CLOUDY    27  25  92 CALM      30.06S
GORDONSVILLE*  CLOUDY    23  22  97 MISG      30.06F
ORANGE*        CLOUDY    23  21  93 CALM      30.07S
LOUISA*        CLOUDY    22  21  95 CALM      30.11F
BUMPASS*       FAIR      25  25 100 CALM      30.08S
FARMVILLE*     CLOUDY    23  23 100 CALM      30.06F
CREWE*         FAIR      23  23 100 CALM      30.08S
FORT PICKETT*  FAIR      27  27 100 CALM      30.08S
CHASE CITY*    FAIR      26  26 100 CALM      30.08S
CLARKSVILLE*   PTSUNNY   27  27 100 CALM      30.08S
SOUTH HILL*    CLOUDY    25  24  96 CALM      30.14S
LAWRENCEVILLE* FAIR      28  26  96 CALM      30.08S
EMPORIA*       CLOUDY    25  23  93 CALM      30.11R
$$

VAZ088>098-241300-
SOUTHEAST VIRGINIA

CITY           SKY/WX    TMP DP  RH WIND       PRES   REMARKS
NORFOLK        CLEAR     33  32  96 CALM      30.08S
VIRGINIA BEACH PTCLDY    29  26  89 NW3       30.07S
NORFOLK NAVAL  PTCLDY    32  29  88 CALM      30.10R
WEST POINT*    PTCLDY    25  24  97 CALM      30.12S
SALUDA*        FAIR      27  27  99 CALM      30.09S
NEWPORT NEWS   CLEAR     25  23  92 CALM      30.09S
LANGLEY AFB    CLEAR     30  28  90 CALM      30.08S
FORT EUSTIS    CLEAR     30  26  84 CALM      30.07R
WILLIAMSBURG*  CLEAR     30  28  93 CALM      30.10S
HR EXEC AP*    NOT AVBL
FRANKLIN*      CLOUDY    24  22  93 CALM      30.10R
US460-WAKEFLD  CLOUDY    25  24  96 CALM      30.10R
$$

VAZ020-022-025-037-045-241300-
WEST CENTRAL AND SOUTHWEST VIRGINIA

CITY           SKY/WX    TMP DP  RH WIND       PRES   REMARKS
STAUNTON*      CLOUDY    20  19  95 CALM      30.05S
WAYNESBORO*    CLOUDY    24  22  93 SW5       30.02F
HOT SPRINGS VA CLOUDY    39 -23   6 CALM      29.97S
LYNCHBURG      CLOUDY    25  22  88 CALM      30.04F
DANVILLE       CLOUDY    23  22  96 CALM      30.07S
SOUTH BOSTON*  FAIR      23  22  96 CALM      30.09S
MARTINSVILLE   CLOUDY    21  19  93 CALM      30.07F
ROANOKE        CLOUDY    29  25  85 NE3       30.06S
BLACKSBURG     CLEAR     24  23  93 CALM      30.05S
DUBLIN*        CLEAR     27  24  87 CALM      30.03S
MARION*        CLEAR     28  25  87 CALM      30.03R
HILLSVILLE*    CLEAR     31  28  88 S3        29.99S
RICHLANDS*     FAIR      33  24  70 NW3       30.01R
WISE*          CLOUDY    34  27  75 SW3       30.02R
ABINGDON*      CLOUDY    32  29  90 CALM      30.01S
$$

MDZ021>025-VAZ099-100-241300-
SOUTHERN MARYLAND AND THE DELMARVA PENINSULA

CITY           SKY/WX    TMP DP  RH WIND       PRES   REMARKS
PATUXENT RIVER CLEAR     28  27  96 MISG      30.09S
BAY BRIDGE APT CLEAR     30  30 100 S3        30.08S
LEONARDTOWN    CLEAR     28  27  93 CALM      30.10S
DOVER          CLEAR     29  29 100 S3        30.07F
GEORGETOWN     CLEAR     27  24  89 CALM      30.10S
EASTON         CLEAR     28  27  93 S5        30.11F
CAMBRIDGE      CLEAR     27  25  93 CALM      30.09F
SALISBURY      CLEAR     25  23  92 CALM      30.09S
OCEAN CITY     CLEAR     26  25  96 NW3       30.10S
WALLOPS ISLAND CLEAR     27  26  96 W3        30.10R
ACCOMACK*      CLEAR     28  27  95 CALM      30.09S
$$

NCZ012>017-030>032-241300-
NORTH CENTRAL AND EASTERN NORTH CAROLINA

CITY           SKY/WX    TMP DP  RH WIND       PRES   REMARKS
ROANOKE RAPIDS FAIR      27  27 100 CALM      30.09R
RALEIGH        PTCLDY    27  25  92 CALM      30.08R
ELIZABETH CITY CLEAR     36  32  85 N5        30.08R
AHOSKIE*       CLOUDY    26  25  96 CALM      30.09R
EDENTON*       CLEAR     32  30  92 CALM      30.08S
CURRITUCK*     CLEAR     33  31  90 CALM      30.08R
KILL DEVIL HLS CLEAR     46  37  71 NE5       30.04S
MANTEO         CLEAR     46  38  76 NE8       30.05S
CAPE HATTERAS  MOCLDY    51  44  77 NE9G17    30.03R
TARBORO*       NOT AVBL
GOLDSBORO      CLEAR     29  27  90 CALM      30.05S
WASHINGTON     CLEAR     32  31  95 N3        30.08R
GREENVILLE     CLEAR     28  28 100 CALM      30.09R FOG
NEW BERN       CLEAR     37  35  92 N8        30.06R
WILMINGTON     CLOUDY    41  36  82 NE10      30.02S
$$

VAZ048-241300-
ELSEWHERE

CITY           SKY/WX    TMP DP  RH WIND       PRES   REMARKS
HARRISBURG PA  CLOUDY    26  24  92 N5        30.06R
BALTIMORE      CLEAR     26  24  92 CALM      30.07S
ANNAPOLIS      CLEAR     32  30  92 CALM      30.08S
ANDREWS AFB    CLEAR     29  25  83 CALM      30.06S
PHILADELPHIA   CLEAR     32  27  81 W3        30.08S
GREENSBORO     CLOUDY    29  26  89 CALM      30.05R
ROCKY MOUNT    CLEAR     28  28 100 CALM      30.09R FOG
$$

VAZ100-241300-
MARINE

STATION/POSITION TIME  TEMP    WIND        PRES    WAVE   SWELL
                       AIR SEA DIR/SP/G            HT/PER HT/PER
                 (UTC) (F)     (DEG/KT/KT) (MB)    (FT/S) (FT/S)
BRANDYWINE LGT   1142   42     260/  6/  7 1019.0F
CAPE MAY NJ      1142   36 49  110/  1/  1 1018.3F
LEWES DE         1148   32 49  220/  6/  8 1018.7F
15NM E FENWICK I 1150   45 57  310/  8/ 12 1019.1F   3/10   3/10
OCEAN-CITY-INLET 1148   35 48  350/  3/  4 1019.3S
WACHAPREAGUE VA  1148   30 45  330/  2/  3 1019.0R
THOMAS POINT MD  1200   40 51  230/  7/  8   N/A
GOOSES REEF MD   1150   43     240/  6/  8 1019.2F
COVE POINT MD    1148   40     260/  6/  8 1019.3F
SOLOMONS ISLAND  1148   37 52  310/  1/  3 1018.5F
BISHOPS HEAD MD  1148   41 45   10/  2/  2 1019.1F
PINEY POINT MD   1136          270/  6/  7   N/A
POTOMAC MD       1150   42     270/  6/  8 1018.3S
CAMBRIDGE MD     1142   31 47              1019.6S
LEWISETTA VA     1148   34 48  230/  4/  5 1019.0S
RAPPAHANNOCK LGT 1136           50/  4/  5 1019.4R
STINGRAY PT      1150   42     340/  4/  6 1019.1R
YORK RVR RNG VA  1148   41     360/  7/  8 1019.4R
YORKTOWN VA      1136   38 52  290/  5/  5 1018.6R
JAMESTOWN VA     1150          320/  2/  4   N/A
DOMINION TERM VA 1136   40      CALM  /  2 1018.8R
KIPTOPEKE VA     1136      51   50/  5/  5   N/A
CAPE HENRY VA    1136   44      30/  8/ 10   N/A
WILLOUBY STN VA  1136   42     350/  8/  8 1018.5R
S CRANEY ISL VA  1136   38     300/  4/  5 1018.4S
CAPE HENRY BUOY  1200      59                N/A     3/ 9   2/11
1ST LANDING BUOY 1150   45      50/ 10/ 12 1018.9R
CAPE CHARLES BUO 1151      57                N/A     3/ 9   2/11
64NM E OF VA BCH 1150   50 58   20/ 12/ 16 1017.9F   5/ 9   5/ 9
DUCK PIER NC     1136   49 57   40/ 13/ 16 1017.0F
44100 DUCK FRF   1145      60                N/A     5/10   2/11
44056 DUCK FRF   1200      59                N/A     4/10   2/11
OREGON INLET NC  1136   49 56   30/ 12/ 16 1017.2R
HATTERAS NC      1136   51 58   20/ 14/ 18 1016.4R
DIAMOND SHLS NC  1200   59 71   20/ 19/ 23 1016.1
CAPE LOOKOUT NC  1200           20/ 17/ 19 1016.4S
$$




USA.gov is the U.S. government's official web portal to all federal, state and local government web resources and services.